contact:dominique.lefevre@mio.osupytheas.fr, maurice.libes@osupytheas.fr, didier.mallarino@osupytheas.fr
Project:EMSO http://www.emso-fr.org/EMSO-France
Depth: 2436.0 m
Title:EMSO Ligure Ouest : Data MII capteur CSTAR
DateTime,Latitude,Longitude,Instrument_Serial,Reference_Counts,Signal_Counts,Corrected_Signal_raw_counts,Calculated_Beam_c_inverse_meters,Internal_thermistor_counts
DateTime,Latitude,Longitude,Instrument_Serial,Reference_Counts,Signal_Counts,Corrected_Signal_raw_counts,Calculated_Beam_c_inverse_meters,Internal_thermistor_counts
2021-12-01T00:00:29,42.805,6.029,CST-1368DR,5053,6568,13900,0.466,551
2021-12-01T00:03:31,42.805,6.029,CST-1368DR,5053,6570,13903,0.465,551
2021-12-01T00:06:32,42.805,6.029,CST-1368DR,5053,6569,13901,0.465,551
2021-12-01T00:09:34,42.805,6.029,CST-1368DR,5053,6570,13902,0.465,551
2021-12-01T00:12:35,42.805,6.029,CST-1368DR,5053,6569,13901,0.465,551
2021-12-01T00:15:37,42.805,6.029,CST-1368DR,5053,6569,13901,0.465,551
2021-12-01T00:18:39,42.805,6.029,CST-1368DR,5053,6569,13901,0.465,551
2021-12-01T00:21:40,42.805,6.029,CST-1368DR,5053,6569,13901,0.465,551
2021-12-01T00:24:42,42.805,6.029,CST-1368DR,5053,6569,13900,0.466,551
2021-12-01T00:27:43,42.805,6.029,CST-1368DR,5053,6562,13887,0.469,551
2021-12-01T00:30:45,42.805,6.029,CST-1368DR,5053,6570,13903,0.465,551
2021-12-01T00:33:47,42.805,6.029,CST-1368DR,5053,6569,13901,0.465,551
2021-12-01T00:36:48,42.805,6.029,CST-1368DR,5053,6569,13901,0.465,551
2021-12-01T00:39:50,42.805,6.029,CST-1368DR,5053,6569,13901,0.465,551
2021-12-01T00:42:51,42.805,6.029,CST-1368DR,5053,6570,13902,0.465,551
2021-12-01T00:45:53,42.805,6.029,CST-1368DR,5053,6570,13902,0.465,551
2021-12-01T00:48:54,42.805,6.029,CST-1368DR,5053,6569,13902,0.465,551
2021-12-01T00:51:56,42.805,6.029,CST-1368DR,5053,6570,13903,0.465,551
2021-12-01T00:54:58,42.805,6.029,CST-1368DR,5053,6568,13899,0.466,551
2021-12-01T00:57:59,42.805,6.029,CST-1368DR,5053,6569,13902,0.465,551
2021-12-01T01:01:01,42.805,6.029,CST-1368DR,5053,6569,13901,0.465,551
2021-12-01T01:04:02,42.805,6.029,CST-1368DR,5053,6569,13902,0.465,551
2021-12-01T01:07:04,42.805,6.029,CST-1368DR,5053,6569,13901,0.465,551
2021-12-01T01:10:05,42.805,6.029,CST-1368DR,5053,6569,13901,0.465,551
2021-12-01T01:13:07,42.805,6.029,CST-1368DR,5053,6568,13900,0.466,551
2021-12-01T01:16:09,42.805,6.029,CST-1368DR,5053,6569,13901,0.465,551
2021-12-01T01:19:10,42.805,6.029,CST-1368DR,5053,6569,13901,0.465,551
2021-12-01T01:22:12,42.805,6.029,CST-1368DR,5053,6566,13895,0.467,551
2021-12-01T01:25:13,42.805,6.029,CST-1368DR,5053,6569,13901,0.465,551
2021-12-01T01:28:15,42.805,6.029,CST-1368DR,5053,6570,13903,0.465,551
2021-12-01T01:31:17,42.805,6.029,CST-1368DR,5053,6569,13901,0.465,551
2021-12-01T01:34:18,42.805,6.029,CST-1368DR,5053,6569,13901,0.465,551
2021-12-01T01:37:20,42.805,6.029,CST-1368DR,5053,6569,13901,0.465,551
2021-12-01T01:40:21,42.805,6.029,CST-1368DR,5053,6570,13903,0.465,551
2021-12-01T01:43:23,42.805,6.029,CST-1368DR,5053,6570,13902,0.465,551
2021-12-01T01:46:24,42.805,6.029,CST-1368DR,5053,6569,13901,0.465,551
2021-12-01T01:49:26,42.805,6.029,CST-1368DR,5052,6569,13904,0.464,550
2021-12-01T01:52:28,42.805,6.029,CST-1368DR,5052,6570,13906,0.464,551
2021-12-01T01:55:29,42.805,6.029,CST-1368DR,5052,6569,13903,0.465,551
2021-12-01T01:58:31,42.805,6.029,CST-1368DR,5052,6569,13903,0.465,551
2021-12-01T02:01:32,42.805,6.029,CST-1368DR,5053,6568,13900,0.466,551
2021-12-01T02:04:34,42.805,6.029,CST-1368DR,5053,6569,13902,0.465,551
2021-12-01T02:07:35,42.805,6.029,CST-1368DR,5052,6567,13900,0.466,551
2021-12-01T02:10:37,42.805,6.029,CST-1368DR,5053,6569,13901,0.465,551
2021-12-01T02:13:39,42.805,6.029,CST-1368DR,5052,6568,13902,0.465,551
2021-12-01T02:16:40,42.805,6.029,CST-1368DR,5053,6570,13902,0.465,551
2021-12-01T02:19:42,42.805,6.029,CST-1368DR,5053,6568,13898,0.466,551
2021-12-01T02:22:43,42.805,6.029,CST-1368DR,5052,6569,13904,0.464,551
2021-12-01T02:25:45,42.805,6.029,CST-1368DR,5053,6568,13900,0.466,551
2021-12-01T02:28:47,42.805,6.029,CST-1368DR,5053,6568,13899,0.466,551
2021-12-01T02:31:48,42.805,6.029,CST-1368DR,5053,6568,13900,0.466,551
2021-12-01T02:34:50,42.805,6.029,CST-1368DR,5052,6568,13902,0.465,551
2021-12-01T02:37:51,42.805,6.029,CST-1368DR,5052,6568,13902,0.465,551
2021-12-01T02:40:53,42.805,6.029,CST-1368DR,5052,6568,13902,0.465,551
2021-12-01T02:43:54,42.805,6.029,CST-1368DR,5052,6569,13904,0.464,551
2021-12-01T02:46:56,42.805,6.029,CST-1368DR,5052,6569,13903,0.465,551
2021-12-01T02:49:58,42.805,6.029,CST-1368DR,5052,6568,13902,0.465,551
2021-12-01T02:52:59,42.805,6.029,CST-1368DR,5052,6569,13903,0.465,551
2021-12-01T02:56:01,42.805,6.029,CST-1368DR,5052,6568,13901,0.465,551
2021-12-01T02:59:02,42.805,6.029,CST-1368DR,5052,6569,13904,0.464,551
2021-12-01T03:02:04,42.805,6.029,CST-1368DR,5052,6568,13902,0.465,551
2021-12-01T03:05:06,42.805,6.029,CST-1368DR,5052,6568,13902,0.465,551
2021-12-01T03:08:07,42.805,6.029,CST-1368DR,5052,6568,13901,0.465,551
2021-12-01T03:11:09,42.805,6.029,CST-1368DR,5052,6568,13902,0.465,551
2021-12-01T03:14:10,42.805,6.029,CST-1368DR,5053,6569,13902,0.465,550
2021-12-01T03:17:12,42.805,6.029,CST-1368DR,5052,6568,13902,0.465,551
2021-12-01T03:20:13,42.805,6.029,CST-1368DR,5052,6569,13903,0.465,551
2021-12-01T03:23:15,42.805,6.029,CST-1368DR,5052,6569,13904,0.464,551
2021-12-01T03:26:17,42.805,6.029,CST-1368DR,5052,6568,13902,0.465,551
2021-12-01T03:29:18,42.805,6.029,CST-1368DR,5052,6569,13904,0.464,551
2021-12-01T03:32:20,42.805,6.029,CST-1368DR,5052,6568,13901,0.465,551
2021-12-01T03:35:21,42.805,6.029,CST-1368DR,5052,6568,13902,0.465,551
2021-12-01T03:38:23,42.805,6.029,CST-1368DR,5052,6568,13901,0.465,551
2021-12-01T03:41:24,42.805,6.029,CST-1368DR,5052,6568,13901,0.465,551
2021-12-01T03:44:26,42.805,6.029,CST-1368DR,5052,6564,13893,0.468,551
2021-12-01T03:47:28,42.805,6.029,CST-1368DR,5052,6567,13899,0.466,551
2021-12-01T03:50:29,42.805,6.029,CST-1368DR,5052,6569,13904,0.464,551
2021-12-01T03:53:31,42.805,6.029,CST-1368DR,5052,6569,13903,0.465,551
2021-12-01T03:56:32,42.805,6.029,CST-1368DR,5052,6569,13903,0.465,551
2021-12-01T03:59:34,42.805,6.029,CST-1368DR,5052,6567,13899,0.466,551
2021-12-01T04:02:36,42.805,6.029,CST-1368DR,5052,6568,13901,0.465,551
2021-12-01T04:05:37,42.805,6.029,CST-1368DR,5052,6569,13903,0.465,551
2021-12-01T04:08:39,42.805,6.029,CST-1368DR,5052,6566,13897,0.466,551
2021-12-01T04:11:40,42.805,6.029,CST-1368DR,5052,6561,13886,0.470,551
2021-12-01T04:14:42,42.805,6.029,CST-1368DR,5052,6567,13899,0.466,551
2021-12-01T04:17:43,42.805,6.029,CST-1368DR,5052,6566,13897,0.466,551
2021-12-01T04:20:45,42.805,6.029,CST-1368DR,5052,6566,13897,0.466,551
2021-12-01T04:23:47,42.805,6.029,CST-1368DR,5052,6566,13898,0.466,551
2021-12-01T04:26:48,42.805,6.029,CST-1368DR,5052,6568,13901,0.465,551
2021-12-01T04:29:50,42.805,6.029,CST-1368DR,5052,6567,13899,0.466,551
2021-12-01T04:32:51,42.805,6.029,CST-1368DR,5052,6568,13902,0.465,551
2021-12-01T04:35:53,42.805,6.029,CST-1368DR,5052,6568,13901,0.465,551
2021-12-01T04:38:55,42.805,6.029,CST-1368DR,5052,6568,13901,0.465,551
2021-12-01T04:41:56,42.805,6.029,CST-1368DR,5052,6568,13901,0.465,551
2021-12-01T04:44:58,42.805,6.029,CST-1368DR,5052,6567,13900,0.466,551
2021-12-01T04:47:59,42.805,6.029,CST-1368DR,5052,6568,13901,0.465,551
2021-12-01T04:51:01,42.805,6.029,CST-1368DR,5052,6567,13899,0.466,551
2021-12-01T04:54:02,42.805,6.029,CST-1368DR,5052,6568,13901,0.465,551
2021-12-01T04:57:04,42.805,6.029,CST-1368DR,5052,6567,13900,0.466,551
2021-12-01T05:00:06,42.805,6.029,CST-1368DR,5052,6565,13895,0.467,551
2021-12-01T05:03:07,42.805,6.029,CST-1368DR,5052,6567,13900,0.466,551
2021-12-01T05:06:09,42.805,6.029,CST-1368DR,5052,6566,13898,0.466,551
2021-12-01T05:09:10,42.805,6.029,CST-1368DR,5052,6567,13899,0.466,550
2021-12-01T05:12:12,42.805,6.029,CST-1368DR,5052,6563,13891,0.468,551
2021-12-01T05:15:13,42.805,6.029,CST-1368DR,5052,6567,13899,0.466,551
2021-12-01T05:18:15,42.805,6.029,CST-1368DR,5052,6566,13898,0.466,551
2021-12-01T05:21:17,42.805,6.029,CST-1368DR,5052,6566,13898,0.466,551
2021-12-01T05:24:18,42.805,6.029,CST-1368DR,5052,6567,13900,0.466,551
2021-12-01T05:27:20,42.805,6.029,CST-1368DR,5052,6567,13899,0.466,551
2021-12-01T05:30:21,42.805,6.029,CST-1368DR,5052,6567,13899,0.466,551
2021-12-01T05:33:23,42.805,6.029,CST-1368DR,5052,6566,13898,0.466,551
2021-12-01T05:36:25,42.805,6.029,CST-1368DR,5052,6566,13898,0.466,551
2021-12-01T05:39:26,42.805,6.029,CST-1368DR,5052,6568,13901,0.465,551
2021-12-01T05:42:28,42.805,6.029,CST-1368DR,5052,6568,13901,0.465,551
2021-12-01T05:45:29,42.805,6.029,CST-1368DR,5052,6565,13896,0.467,551
2021-12-01T05:48:31,42.805,6.029,CST-1368DR,5052,6567,13899,0.466,551
2021-12-01T05:51:32,42.805,6.029,CST-1368DR,5052,6567,13899,0.466,551
2021-12-01T05:54:34,42.805,6.029,CST-1368DR,5052,6567,13899,0.466,551
2021-12-01T05:57:36,42.805,6.029,CST-1368DR,5052,6566,13898,0.466,551
2021-12-01T06:00:37,42.805,6.029,CST-1368DR,5052,6568,13901,0.465,551
2021-12-01T06:03:39,42.805,6.029,CST-1368DR,5052,6567,13899,0.466,551
2021-12-01T06:06:40,42.805,6.029,CST-1368DR,5052,6567,13899,0.466,551
2021-12-01T06:09:42,42.805,6.029,CST-1368DR,5052,6566,13897,0.466,551
2021-12-01T06:12:44,42.805,6.029,CST-1368DR,5052,6566,13898,0.466,551
2021-12-01T06:15:45,42.805,6.029,CST-1368DR,5052,6566,13898,0.466,551
2021-12-01T06:18:47,42.805,6.029,CST-1368DR,5052,6567,13899,0.466,551
2021-12-01T06:21:48,42.805,6.029,CST-1368DR,5052,6566,13898,0.466,551
2021-12-01T06:24:50,42.805,6.029,CST-1368DR,5052,6565,13895,0.467,551
2021-12-01T06:27:51,42.805,6.029,CST-1368DR,5052,6567,13899,0.466,551
2021-12-01T06:30:53,42.805,6.029,CST-1368DR,5052,6566,13896,0.467,551
2021-12-01T06:33:55,42.805,6.029,CST-1368DR,5052,6565,13896,0.467,551
2021-12-01T06:36:56,42.805,6.029,CST-1368DR,5052,6566,13897,0.466,551
2021-12-01T06:39:58,42.805,6.029,CST-1368DR,5052,6566,13897,0.466,551
2021-12-01T06:42:59,42.805,6.029,CST-1368DR,5052,6566,13898,0.466,551
2021-12-01T06:46:01,42.805,6.029,CST-1368DR,5052,6565,13896,0.467,551
2021-12-01T06:49:03,42.805,6.029,CST-1368DR,5052,6566,13897,0.466,551
2021-12-01T06:52:04,42.805,6.029,CST-1368DR,5052,6567,13899,0.466,551
2021-12-01T06:55:06,42.805,6.029,CST-1368DR,5052,6563,13891,0.468,551
2021-12-01T06:58:07,42.805,6.029,CST-1368DR,5052,6562,13888,0.469,551
2021-12-01T07:01:09,42.805,6.029,CST-1368DR,5052,6565,13895,0.467,551
2021-12-01T07:04:10,42.805,6.029,CST-1368DR,5052,6565,13896,0.467,551
2021-12-01T07:07:12,42.805,6.029,CST-1368DR,5052,6559,13882,0.471,551
2021-12-01T07:10:14,42.805,6.029,CST-1368DR,5052,6565,13896,0.467,551
2021-12-01T07:13:15,42.805,6.029,CST-1368DR,5052,6566,13897,0.466,551
2021-12-01T07:16:17,42.805,6.029,CST-1368DR,5052,6565,13895,0.467,551
2021-12-01T07:19:18,42.805,6.029,CST-1368DR,5052,6566,13897,0.466,551
2021-12-01T07:22:20,42.805,6.029,CST-1368DR,5052,6564,13894,0.467,551
2021-12-01T07:25:22,42.805,6.029,CST-1368DR,5052,6566,13897,0.466,551
2021-12-01T07:28:23,42.805,6.029,CST-1368DR,5052,6564,13893,0.468,551
2021-12-01T07:31:25,42.805,6.029,CST-1368DR,5052,6564,13894,0.467,551
2021-12-01T07:34:26,42.805,6.029,CST-1368DR,5052,6559,13883,0.471,551
2021-12-01T07:37:28,42.805,6.029,CST-1368DR,5052,6564,13893,0.468,551
2021-12-01T07:40:29,42.805,6.029,CST-1368DR,5052,6566,13896,0.467,551
2021-12-01T07:43:31,42.805,6.029,CST-1368DR,5052,6565,13896,0.467,551
2021-12-01T07:46:33,42.805,6.029,CST-1368DR,5052,6565,13895,0.467,551
2021-12-01T07:49:34,42.805,6.029,CST-1368DR,5052,6565,13894,0.467,551
2021-12-01T07:52:36,42.805,6.029,CST-1368DR,5052,6566,13897,0.466,551
2021-12-01T07:55:37,42.805,6.029,CST-1368DR,5052,6566,13896,0.467,551
2021-12-01T07:58:39,42.805,6.029,CST-1368DR,5052,6565,13895,0.467,551
2021-12-01T08:01:40,42.805,6.029,CST-1368DR,5052,6565,13895,0.467,551
2021-12-01T08:04:42,42.805,6.029,CST-1368DR,5052,6563,13891,0.468,551
2021-12-01T08:07:44,42.805,6.029,CST-1368DR,5052,6563,13891,0.468,551
2021-12-01T08:10:45,42.805,6.029,CST-1368DR,5052,6563,13891,0.468,551
2021-12-01T08:13:47,42.805,6.029,CST-1368DR,5052,6565,13894,0.467,551
2021-12-01T08:16:48,42.805,6.029,CST-1368DR,5052,6564,13893,0.468,551
2021-12-01T08:19:50,42.805,6.029,CST-1368DR,5052,6565,13895,0.467,551
2021-12-01T08:22:52,42.805,6.029,CST-1368DR,5052,6565,13896,0.467,551
2021-12-01T08:25:53,42.805,6.029,CST-1368DR,5052,6566,13896,0.467,551
2021-12-01T08:28:55,42.805,6.029,CST-1368DR,5052,6563,13890,0.469,551
2021-12-01T08:31:56,42.805,6.029,CST-1368DR,5052,6565,13895,0.467,551
2021-12-01T08:34:58,42.805,6.029,CST-1368DR,5052,6563,13891,0.468,551
2021-12-01T08:37:59,42.805,6.029,CST-1368DR,5052,6564,13894,0.467,551
2021-12-01T08:41:01,42.805,6.029,CST-1368DR,5052,6564,13894,0.467,551
2021-12-01T08:44:03,42.805,6.029,CST-1368DR,5052,6564,13892,0.468,551
2021-12-01T08:47:04,42.805,6.029,CST-1368DR,5052,6565,13894,0.467,551
2021-12-01T08:50:06,42.805,6.029,CST-1368DR,5052,6564,13894,0.467,550
2021-12-01T08:53:07,42.805,6.029,CST-1368DR,5052,6563,13891,0.468,551
2021-12-01T08:56:09,42.805,6.029,CST-1368DR,5052,6564,13892,0.468,551
2021-12-01T08:59:11,42.805,6.029,CST-1368DR,5052,6564,13893,0.468,551
2021-12-01T09:02:12,42.805,6.029,CST-1368DR,5052,6561,13886,0.470,551
2021-12-01T09:05:14,42.805,6.029,CST-1368DR,5052,6563,13891,0.468,551
2021-12-01T09:08:15,42.805,6.029,CST-1368DR,5052,6564,13893,0.468,551
2021-12-01T09:11:17,42.805,6.029,CST-1368DR,5052,6564,13893,0.468,551
2021-12-01T09:14:18,42.805,6.029,CST-1368DR,5052,6564,13892,0.468,551
2021-12-01T09:17:20,42.805,6.029,CST-1368DR,5052,6564,13894,0.467,551
2021-12-01T09:20:22,42.805,6.029,CST-1368DR,5052,6563,13891,0.468,551
2021-12-01T09:23:23,42.805,6.029,CST-1368DR,5052,6561,13886,0.470,551
2021-12-01T09:26:25,42.805,6.029,CST-1368DR,5052,6563,13892,0.468,551
2021-12-01T09:29:26,42.805,6.029,CST-1368DR,5052,6563,13891,0.468,550
2021-12-01T09:32:28,42.805,6.029,CST-1368DR,5052,6563,13890,0.469,551
2021-12-01T09:35:29,42.805,6.029,CST-1368DR,5052,6563,13891,0.468,551
2021-12-01T09:38:31,42.805,6.029,CST-1368DR,5052,6563,13890,0.469,551
2021-12-01T09:41:33,42.805,6.029,CST-1368DR,5052,6563,13892,0.468,551
2021-12-01T09:44:34,42.805,6.029,CST-1368DR,5052,6563,13891,0.468,551
2021-12-01T09:47:36,42.805,6.029,CST-1368DR,5052,6558,13880,0.471,551
2021-12-01T09:50:37,42.805,6.029,CST-1368DR,5052,6563,13891,0.468,551
2021-12-01T09:53:39,42.805,6.029,CST-1368DR,5052,6562,13890,0.469,551
2021-12-01T09:56:41,42.805,6.029,CST-1368DR,5051,6561,13890,0.469,551
2021-12-01T09:59:42,42.805,6.029,CST-1368DR,5052,6562,13890,0.469,551
2021-12-01T10:02:44,42.805,6.029,CST-1368DR,5051,6563,13894,0.467,551
2021-12-01T10:05:45,42.805,6.029,CST-1368DR,5051,6562,13892,0.468,551
2021-12-01T10:08:47,42.805,6.029,CST-1368DR,5052,6564,13894,0.467,551
2021-12-01T10:11:48,42.805,6.029,CST-1368DR,5052,6561,13886,0.470,551
2021-12-01T10:14:50,42.805,6.029,CST-1368DR,5052,6562,13890,0.469,551
2021-12-01T10:17:52,42.805,6.029,CST-1368DR,5052,6562,13889,0.469,551
2021-12-01T10:20:53,42.805,6.029,CST-1368DR,5052,6562,13889,0.469,551
2021-12-01T10:23:55,42.805,6.029,CST-1368DR,5052,6562,13889,0.469,551
2021-12-01T10:26:56,42.805,6.029,CST-1368DR,5052,6563,13890,0.469,551
2021-12-01T10:29:58,42.805,6.029,CST-1368DR,5052,6563,13890,0.469,551
2021-12-01T10:33:00,42.805,6.029,CST-1368DR,5052,6562,13890,0.469,551
2021-12-01T10:36:01,42.805,6.029,CST-1368DR,5052,6563,13891,0.468,551
2021-12-01T10:39:03,42.805,6.029,CST-1368DR,5051,6560,13887,0.469,551
2021-12-01T10:42:04,42.805,6.029,CST-1368DR,5051,6562,13891,0.468,551
2021-12-01T10:45:06,42.805,6.029,CST-1368DR,5051,6562,13891,0.468,550
2021-12-01T10:48:07,42.805,6.029,CST-1368DR,5051,6563,13893,0.468,551
2021-12-01T10:51:09,42.805,6.029,CST-1368DR,5051,6562,13892,0.468,551
2021-12-01T10:54:11,42.805,6.029,CST-1368DR,5051,6562,13892,0.468,551
2021-12-01T10:57:12,42.805,6.029,CST-1368DR,5051,6562,13891,0.468,551
2021-12-01T11:00:14,42.805,6.029,CST-1368DR,5051,6563,13894,0.467,551
2021-12-01T11:03:15,42.805,6.029,CST-1368DR,5051,6561,13889,0.469,551
2021-12-01T11:06:17,42.805,6.029,CST-1368DR,5051,6562,13892,0.468,551
2021-12-01T11:09:18,42.805,6.029,CST-1368DR,5051,6561,13889,0.469,551
2021-12-01T11:12:20,42.805,6.029,CST-1368DR,5051,6561,13889,0.469,551
2021-12-01T11:15:22,42.805,6.029,CST-1368DR,5051,6562,13891,0.468,551
2021-12-01T11:18:23,42.805,6.029,CST-1368DR,5051,6560,13886,0.470,551
2021-12-01T11:21:25,42.805,6.029,CST-1368DR,5051,6561,13890,0.469,551
2021-12-01T11:24:26,42.805,6.029,CST-1368DR,5051,6561,13888,0.469,551
2021-12-01T11:27:28,42.805,6.029,CST-1368DR,5051,6561,13890,0.469,551
2021-12-01T11:30:30,42.805,6.029,CST-1368DR,5051,6562,13892,0.468,551
2021-12-01T11:33:31,42.805,6.029,CST-1368DR,5051,6562,13891,0.468,551
2021-12-01T11:36:33,42.805,6.029,CST-1368DR,5051,6561,13890,0.469,551
2021-12-01T11:39:34,42.805,6.029,CST-1368DR,5051,6562,13892,0.468,551
2021-12-01T11:42:36,42.805,6.029,CST-1368DR,5051,6561,13890,0.469,551
2021-12-01T11:45:37,42.805,6.029,CST-1368DR,5051,6562,13892,0.468,551
2021-12-01T11:48:39,42.805,6.029,CST-1368DR,5051,6562,13891,0.468,551
2021-12-01T11:51:41,42.805,6.029,CST-1368DR,5051,6562,13891,0.468,551
2021-12-01T11:54:42,42.805,6.029,CST-1368DR,5051,6561,13889,0.469,551
2021-12-01T11:57:44,42.805,6.029,CST-1368DR,5051,6563,13894,0.467,551
2021-12-01T12:00:45,42.805,6.029,CST-1368DR,5051,6563,13893,0.468,551
2021-12-01T12:03:47,42.805,6.029,CST-1368DR,5051,6562,13892,0.468,551
2021-12-01T12:06:49,42.805,6.029,CST-1368DR,5051,6561,13889,0.469,551
2021-12-01T12:09:50,42.805,6.029,CST-1368DR,5051,6562,13892,0.468,551
2021-12-01T12:12:52,42.805,6.029,CST-1368DR,5051,6562,13891,0.468,551
2021-12-01T12:15:53,42.805,6.029,CST-1368DR,5051,6561,13890,0.469,551
2021-12-01T12:18:55,42.805,6.029,CST-1368DR,5051,6563,13894,0.467,551
2021-12-01T12:21:56,42.805,6.029,CST-1368DR,5051,6562,13892,0.468,551
2021-12-01T12:24:58,42.805,6.029,CST-1368DR,5051,6562,13892,0.468,551
2021-12-01T12:28:00,42.805,6.029,CST-1368DR,5051,6560,13887,0.469,551
2021-12-01T12:31:01,42.805,6.029,CST-1368DR,5051,6561,13889,0.469,551
2021-12-01T12:34:03,42.805,6.029,CST-1368DR,5051,6562,13892,0.468,551
2021-12-01T12:37:04,42.805,6.029,CST-1368DR,5051,6563,13894,0.467,551
2021-12-01T12:40:06,42.805,6.029,CST-1368DR,5051,6561,13890,0.469,551
2021-12-01T12:43:07,42.805,6.029,CST-1368DR,5051,6562,13892,0.468,551
2021-12-01T12:46:09,42.805,6.029,CST-1368DR,5051,6563,13894,0.467,551
2021-12-01T12:49:11,42.805,6.029,CST-1368DR,5051,6562,13892,0.468,551
2021-12-01T12:52:12,42.805,6.029,CST-1368DR,5051,6562,13891,0.468,551
2021-12-01T12:55:14,42.805,6.029,CST-1368DR,5051,6562,13892,0.468,551
2021-12-01T12:58:15,42.805,6.029,CST-1368DR,5051,6563,13893,0.468,551
2021-12-01T13:01:17,42.805,6.029,CST-1368DR,5051,6560,13886,0.470,551
2021-12-01T13:04:19,42.805,6.029,CST-1368DR,5051,6563,13893,0.468,551
2021-12-01T13:07:20,42.805,6.029,CST-1368DR,5051,6563,13893,0.468,551
2021-12-01T13:10:22,42.805,6.029,CST-1368DR,5051,6560,13887,0.469,551
2021-12-01T13:13:23,42.805,6.029,CST-1368DR,5051,6562,13892,0.468,551
2021-12-01T13:16:25,42.805,6.029,CST-1368DR,5051,6562,13892,0.468,551
2021-12-01T13:19:26,42.805,6.029,CST-1368DR,5051,6561,13888,0.469,551
2021-12-01T13:22:28,42.805,6.029,CST-1368DR,5051,6560,13887,0.469,551
2021-12-01T13:25:30,42.805,6.029,CST-1368DR,5051,6559,13884,0.470,551
2021-12-01T13:28:31,42.805,6.029,CST-1368DR,5051,6562,13892,0.468,551
2021-12-01T13:31:33,42.805,6.029,CST-1368DR,5051,6563,13893,0.468,551
2021-12-01T13:34:34,42.805,6.029,CST-1368DR,5051,6562,13891,0.468,551
2021-12-01T13:37:36,42.805,6.029,CST-1368DR,5051,6562,13892,0.468,551
2021-12-01T13:40:37,42.805,6.029,CST-1368DR,5051,6563,13894,0.467,551
2021-12-01T13:43:39,42.805,6.029,CST-1368DR,5051,6561,13889,0.469,551
2021-12-01T13:46:41,42.805,6.029,CST-1368DR,5051,6562,13892,0.468,551
2021-12-01T13:49:42,42.805,6.029,CST-1368DR,5051,6561,13890,0.469,551
2021-12-01T13:52:44,42.805,6.029,CST-1368DR,5051,6560,13887,0.469,551
2021-12-01T13:55:45,42.805,6.029,CST-1368DR,5051,6562,13891,0.468,551
2021-12-01T13:58:47,42.805,6.029,CST-1368DR,5051,6562,13891,0.468,551
2021-12-01T14:01:49,42.805,6.029,CST-1368DR,5051,6563,13893,0.468,551
2021-12-01T14:04:50,42.805,6.029,CST-1368DR,5051,6563,13893,0.468,551
2021-12-01T14:07:52,42.805,6.029,CST-1368DR,5051,6562,13891,0.468,551
2021-12-01T14:10:53,42.805,6.029,CST-1368DR,5051,6562,13892,0.468,551
2021-12-01T14:13:55,42.805,6.029,CST-1368DR,5051,6560,13886,0.470,551
2021-12-01T14:16:56,42.805,6.029,CST-1368DR,5051,6562,13891,0.468,551
2021-12-01T14:19:58,42.805,6.029,CST-1368DR,5051,6562,13892,0.468,551
2021-12-01T14:23:00,42.805,6.029,CST-1368DR,5051,6562,13891,0.468,551
2021-12-01T14:26:01,42.805,6.029,CST-1368DR,5051,6561,13889,0.469,551
2021-12-01T14:29:03,42.805,6.029,CST-1368DR,5051,6562,13892,0.468,551
2021-12-01T14:32:04,42.805,6.029,CST-1368DR,5051,6559,13884,0.470,551
2021-12-01T14:35:06,42.805,6.029,CST-1368DR,5051,6561,13890,0.469,551
2021-12-01T14:38:08,42.805,6.029,CST-1368DR,5051,6561,13889,0.469,551
2021-12-01T14:41:09,42.805,6.029,CST-1368DR,5051,6561,13890,0.469,551
2021-12-01T14:44:11,42.805,6.029,CST-1368DR,5051,6562,13891,0.468,551
2021-12-01T14:47:12,42.805,6.029,CST-1368DR,5051,6562,13892,0.468,551
2021-12-01T14:50:14,42.805,6.029,CST-1368DR,5051,6561,13888,0.469,551
2021-12-01T14:53:15,42.805,6.029,CST-1368DR,5051,6561,13890,0.469,551
2021-12-01T14:56:17,42.805,6.029,CST-1368DR,5051,6561,13890,0.469,551
2021-12-01T14:59:19,42.805,6.029,CST-1368DR,5051,6561,13888,0.469,551
2021-12-01T15:02:20,42.805,6.029,CST-1368DR,5051,6561,13889,0.469,551
2021-12-01T15:05:22,42.805,6.029,CST-1368DR,5050,6561,13891,0.468,551
2021-12-01T15:08:23,42.805,6.029,CST-1368DR,5050,6559,13887,0.469,551
2021-12-01T15:11:25,42.805,6.029,CST-1368DR,5051,6562,13891,0.468,551
2021-12-01T15:14:26,42.805,6.029,CST-1368DR,5051,6559,13885,0.470,551
2021-12-01T15:17:28,42.805,6.029,CST-1368DR,5051,6560,13887,0.469,551
2021-12-01T15:20:30,42.805,6.029,CST-1368DR,5051,6563,13893,0.468,551
2021-12-01T15:23:31,42.805,6.029,CST-1368DR,5050,6534,13836,0.484,551
2021-12-01T15:26:33,42.805,6.029,CST-1368DR,5050,6561,13892,0.468,551
2021-12-01T15:29:34,42.805,6.029,CST-1368DR,5051,6562,13891,0.468,551
2021-12-01T15:32:36,42.805,6.029,CST-1368DR,5051,6562,13892,0.468,551
2021-12-01T15:35:38,42.805,6.029,CST-1368DR,5051,6562,13891,0.468,551
2021-12-01T15:38:39,42.805,6.029,CST-1368DR,5051,6563,13893,0.468,551
2021-12-01T15:41:41,42.805,6.029,CST-1368DR,5051,6560,13887,0.469,551
2021-12-01T15:44:42,42.805,6.029,CST-1368DR,5051,6562,13892,0.468,551
2021-12-01T15:47:44,42.805,6.029,CST-1368DR,5051,6562,13891,0.468,551
2021-12-01T15:50:45,42.805,6.029,CST-1368DR,5051,6561,13890,0.469,551
2021-12-01T15:53:47,42.805,6.029,CST-1368DR,5051,6562,13891,0.468,551
2021-12-01T15:56:49,42.805,6.029,CST-1368DR,5051,6562,13892,0.468,551
2021-12-01T15:59:50,42.805,6.029,CST-1368DR,5051,6563,13893,0.468,551
2021-12-01T16:02:52,42.805,6.029,CST-1368DR,5051,6562,13891,0.468,551
2021-12-01T16:05:53,42.805,6.029,CST-1368DR,5051,6561,13888,0.469,551
2021-12-01T16:08:55,42.805,6.029,CST-1368DR,5051,6562,13892,0.468,551
2021-12-01T16:11:57,42.805,6.029,CST-1368DR,5051,6561,13890,0.469,551
2021-12-01T16:14:58,42.805,6.029,CST-1368DR,5051,6562,13891,0.468,551
2021-12-01T16:18:00,42.805,6.029,CST-1368DR,5051,6561,13889,0.469,551
2021-12-01T16:21:01,42.805,6.029,CST-1368DR,5051,6562,13892,0.468,551
2021-12-01T16:24:03,42.805,6.029,CST-1368DR,5051,6562,13892,0.468,551
2021-12-01T16:27:04,42.805,6.029,CST-1368DR,5051,6562,13891,0.468,551
2021-12-01T16:30:06,42.805,6.029,CST-1368DR,5051,6562,13892,0.468,551
2021-12-01T16:33:08,42.805,6.029,CST-1368DR,5051,6562,13892,0.468,551
2021-12-01T16:36:09,42.805,6.029,CST-1368DR,5051,6563,13894,0.467,551
2021-12-01T16:39:11,42.805,6.029,CST-1368DR,5051,6562,13892,0.468,551
2021-12-01T16:42:12,42.805,6.029,CST-1368DR,5051,6563,13893,0.468,551
2021-12-01T16:45:14,42.805,6.029,CST-1368DR,5051,6562,13892,0.468,551
2021-12-01T16:48:15,42.805,6.029,CST-1368DR,5051,6560,13887,0.469,551
2021-12-01T16:51:17,42.805,6.029,CST-1368DR,5051,6563,13893,0.468,551